TimeCDT,TemperatureF,Dew PointF,Humidity,Sea Level PressureIn,VisibilityMPH,Wind Direction,Wind SpeedMPH,Gust SpeedMPH,PrecipitationIn,Events,Conditions,WindDirDegrees,DateUTC
12:15 AM,73.4,68.0,83,30.05,10.0,South,5.8,-,N/A,,Clear,190,2013-07-08 05:15:00
12:35 AM,73.4,68.0,83,30.05,10.0,South,8.1,-,N/A,,Clear,180,2013-07-08 05:35:00
12:55 AM,73.4,68.0,83,30.05,10.0,South,6.9,-,N/A,,Clear,190,2013-07-08 05:55:00
1:15 AM,73.4,68.0,83,30.05,10.0,South,6.9,-,N/A,,Clear,180,2013-07-08 06:15:00
1:35 AM,73.4,68.0,83,30.05,10.0,South,6.9,-,N/A,,Clear,190,2013-07-08 06:35:00
1:55 AM,73.4,68.0,83,30.04,10.0,South,8.1,-,N/A,,Clear,190,2013-07-08 06:55:00
2:15 AM,73.4,68.0,83,30.04,10.0,South,6.9,-,N/A,,Clear,190,2013-07-08 07:15:00
2:35 AM,73.4,68.0,83,30.04,10.0,South,5.8,-,N/A,,Clear,190,2013-07-08 07:35:00
2:55 AM,73.4,68.0,83,30.03,10.0,SSW,5.8,-,N/A,,Clear,200,2013-07-08 07:55:00
3:15 AM,73.4,68.0,83,30.03,10.0,South,6.9,-,N/A,,Clear,190,2013-07-08 08:15:00
3:35 AM,71.6,68.0,88,30.03,10.0,South,6.9,-,N/A,,Clear,190,2013-07-08 08:35:00
3:55 AM,71.6,68.0,88,30.03,10.0,South,5.8,-,N/A,,Clear,190,2013-07-08 08:55:00
4:15 AM,71.6,68.0,88,30.04,10.0,South,6.9,-,N/A,,Clear,190,2013-07-08 09:15:00
4:35 AM,71.6,68.0,88,30.04,10.0,South,6.9,-,N/A,,Clear,190,2013-07-08 09:35:00
4:55 AM,69.8,68.0,94,30.04,10.0,South,5.8,-,N/A,,Clear,190,2013-07-08 09:55:00
5:15 AM,71.6,69.8,94,30.04,10.0,South,6.9,-,N/A,,Scattered Clouds,190,2013-07-08 10:15:00
5:55 AM,71.6,68.0,88,30.05,10.0,South,6.9,-,N/A,,Clear,190,2013-07-08 10:55:00
6:15 AM,71.6,69.8,94,30.05,10.0,SSW,5.8,-,N/A,,Clear,200,2013-07-08 11:15:00
6:35 AM,71.6,69.8,94,30.05,10.0,SSW,6.9,-,N/A,,Clear,200,2013-07-08 11:35:00
6:55 AM,73.4,69.8,88,30.05,10.0,South,5.8,-,N/A,,Scattered Clouds,190,2013-07-08 11:55:00
7:15 AM,73.4,69.8,88,30.06,10.0,SSW,4.6,-,N/A,,Scattered Clouds,210,2013-07-08 12:15:00
7:35 AM,73.4,68.0,83,30.07,10.0,SSW,4.6,-,N/A,,Scattered Clouds,200,2013-07-08 12:35:00
7:55 AM,73.4,69.8,88,30.07,10.0,SSW,5.8,-,N/A,,Scattered Clouds,200,2013-07-08 12:55:00
8:15 AM,75.2,69.8,83,30.07,10.0,SSW,5.8,-,N/A,,Clear,200,2013-07-08 13:15:00
8:35 AM,77.0,69.8,78,30.08,10.0,SSW,6.9,-,N/A,,Clear,210,2013-07-08 13:35:00
8:55 AM,77.0,68.0,74,30.08,10.0,SSW,6.9,-,N/A,,Clear,210,2013-07-08 13:55:00
9:15 AM,77.0,68.0,74,30.09,10.0,SSW,6.9,-,N/A,,Clear,210,2013-07-08 14:15:00
9:35 AM,78.8,68.0,69,30.09,10.0,SW,9.2,-,N/A,,Clear,220,2013-07-08 14:35:00
9:55 AM,78.8,68.0,69,30.10,10.0,SW,10.4,-,N/A,,Clear,230,2013-07-08 14:55:00
10:15 AM,78.8,69.8,74,30.10,10.0,SW,6.9,-,N/A,,Clear,230,2013-07-08 15:15:00
10:35 AM,78.8,69.8,74,30.09,10.0,SSW,8.1,-,N/A,,Clear,210,2013-07-08 15:35:00
10:55 AM,78.8,69.8,74,30.10,10.0,WSW,5.8,-,N/A,,Clear,240,2013-07-08 15:55:00
11:15 AM,78.8,69.8,74,30.10,10.0,Calm,Calm,-,N/A,,Clear,0,2013-07-08 16:15:00
11:35 AM,78.8,71.6,78,30.10,10.0,SW,3.5,-,N/A,Rain,Light Rain,230,2013-07-08 16:35:00
11:55 AM,78.8,71.6,78,30.10,10.0,SSW,4.6,-,N/A,,Clear,210,2013-07-08 16:55:00
12:15 PM,80.6,71.6,74,30.09,10.0,SSW,4.6,-,N/A,,Clear,200,2013-07-08 17:15:00
12:35 PM,80.6,71.6,74,30.08,10.0,South,6.9,-,N/A,,Clear,190,2013-07-08 17:35:00
12:55 PM,80.6,71.6,74,30.07,10.0,South,8.1,-,N/A,,Clear,190,2013-07-08 17:55:00
1:15 PM,78.8,71.6,78,30.07,10.0,SSW,9.2,-,N/A,Rain,Light Rain,200,2013-07-08 18:15:00
1:35 PM,78.8,71.6,78,30.06,10.0,South,9.2,-,N/A,,Clear,190,2013-07-08 18:35:00
1:55 PM,80.6,71.6,74,30.05,10.0,South,6.9,-,N/A,Rain,Light Rain,180,2013-07-08 18:55:00
2:15 PM,80.6,71.6,74,30.05,10.0,South,11.5,-,N/A,,Clear,190,2013-07-08 19:15:00
2:35 PM,80.6,71.6,74,30.04,10.0,South,8.1,-,N/A,,Clear,190,2013-07-08 19:35:00
2:55 PM,82.4,71.6,70,30.04,10.0,South,6.9,-,N/A,,Clear,180,2013-07-08 19:55:00
3:15 PM,84.2,73.4,70,30.04,10.0,South,6.9,-,N/A,,Clear,180,2013-07-08 20:15:00
3:35 PM,82.4,73.4,74,30.04,10.0,SSW,6.9,-,N/A,,Clear,210,2013-07-08 20:35:00
3:55 PM,84.2,71.6,66,30.03,10.0,SSW,8.1,-,N/A,,Clear,210,2013-07-08 20:55:00
4:15 PM,84.2,71.6,66,30.03,10.0,SSW,5.8,-,N/A,,Clear,210,2013-07-08 21:15:00
4:35 PM,84.2,73.4,70,30.03,10.0,SSW,4.6,-,N/A,,Clear,210,2013-07-08 21:35:00
4:55 PM,84.2,71.6,66,30.02,10.0,SSW,9.2,-,N/A,,Clear,200,2013-07-08 21:55:00
5:15 PM,82.4,73.4,74,30.02,10.0,SSW,4.6,-,N/A,,Clear,210,2013-07-08 22:15:00
5:35 PM,82.4,73.4,74,30.02,10.0,SSW,4.6,-,N/A,,Clear,200,2013-07-08 22:35:00
5:55 PM,82.4,71.6,70,30.01,10.0,SW,6.9,-,N/A,,Clear,220,2013-07-08 22:55:00
6:15 PM,82.4,71.6,70,30.01,10.0,SSW,4.6,-,N/A,,Clear,200,2013-07-08 23:15:00
6:35 PM,82.4,71.6,70,30.01,10.0,SSW,5.8,-,N/A,,Clear,210,2013-07-08 23:35:00
6:55 PM,82.4,73.4,74,30.01,10.0,SSW,3.5,-,N/A,,Clear,200,2013-07-08 23:55:00
7:15 PM,82.4,73.4,74,30.01,10.0,South,5.8,-,N/A,,Clear,190,2013-07-09 00:15:00
7:35 PM,82.4,73.4,74,30.01,10.0,SSW,5.8,-,N/A,,Clear,200,2013-07-09 00:35:00
7:55 PM,80.6,73.4,79,30.01,10.0,SSW,5.8,-,N/A,,Clear,200,2013-07-09 00:55:00
8:15 PM,78.8,71.6,78,30.01,10.0,South,5.8,-,N/A,,Clear,190,2013-07-09 01:15:00
8:35 PM,78.8,73.4,83,30.02,10.0,SSW,4.6,-,N/A,,Clear,200,2013-07-09 01:35:00
8:55 PM,75.2,73.4,94,30.01,10.0,South,4.6,-,N/A,,Clear,190,2013-07-09 01:55:00
9:15 PM,75.2,73.4,94,30.02,10.0,SSW,3.5,-,N/A,,Clear,200,2013-07-09 02:15:00
9:35 PM,75.2,73.4,94,30.03,10.0,SSW,3.5,-,N/A,,Clear,200,2013-07-09 02:35:00
9:55 PM,75.2,71.6,89,30.03,10.0,South,4.6,-,N/A,,Clear,180,2013-07-09 02:55:00
10:15 PM,75.2,71.6,89,30.03,10.0,South,4.6,-,N/A,,Clear,180,2013-07-09 03:15:00
10:35 PM,73.4,71.6,94,30.03,10.0,South,4.6,-,N/A,,Clear,180,2013-07-09 03:35:00
10:55 PM,73.4,71.6,94,30.03,10.0,South,5.8,-,N/A,,Clear,170,2013-07-09 03:55:00
11:15 PM,73.4,71.6,94,30.03,10.0,South,4.6,-,N/A,,Clear,170,2013-07-09 04:15:00
11:35 PM,73.4,71.6,94,30.04,10.0,South,4.6,-,N/A,,Clear,170,2013-07-09 04:35:00
11:55 PM,73.4,71.6,94,30.04,10.0,South,5.8,-,N/A,,Clear,170,2013-07-09 04:55:00